Location: Buckhorn Peak
(37.6641°N, 120.1241°W)
Time: 19:40:20
(UTC+00:00)

Cosmos 1939 Rocket - Pass Details

Date: 05 August 2024
Orbit: 511 x 552 km, 97.5° (Epoch: 12 September)

Event Time Altitude Azimuth Distance (km) Brightness Sun altitude
Rises 11:52:54 0° 26° (NNE) 2,638 7.4 -14.0°
Reaches altitude 10° 11:55:18 10° 41° (NE) 1,752 6.7 -13.6°
Maximum altitude 11:58:24 24° 96° (E) 1,112 5.0 -13.1°
Drops below altitude 10° 12:01:30 10° 151° (SSE) 1,760 5.4 -12.5°
Enters shadow 12:06:14 -7° 172° (S) 3,583 6.7 -11.7°
